Date,TemperatureHighF,TemperatureAvgF,TemperatureLowF,DewpointHighF,DewpointAvgF,DewpointLowF,HumidityHigh,HumidityAvg,HumidityLow,PressureMaxIn,PressureMinIn,WindSpeedMaxMPH,WindSpeedAvgMPH,GustSpeedMaxMPH,PrecipitationSumIn
2013-1-1,66.3,57.5,48.5,62.0,54.7,47.0,99,90,80,30.29,30.07,3,0,0,0.39
2013-1-2,56.5,50.1,43.1,54.0,46.3,41.0,98,87,69,30.32,30.12,5,0,0,0.01
2013-1-3,48.4,41.4,34.6,42.0,38.3,31.0,97,89,71,30.50,30.31,3,0,0,0.11
2013-1-4,58.9,42.5,32.8,31.0,28.7,25.0,86,62,29,30.59,30.48,5,0,0,0.00
2013-1-5,52.9,43.6,32.3,43.0,31.1,26.0,93,64,35,30.57,30.42,3,0,0,0.01
2013-1-6,55.1,46.0,38.5,46.0,41.3,37.0,94,84,69,30.44,30.34,3,0,0,0.02
2013-1-7,58.8,45.1,33.7,38.0,35.1,31.0,97,71,40,30.53,30.42,5,0,0,0.01
2013-1-8,62.0,52.2,39.6,51.0,43.9,35.0,83,73,62,30.52,30.41,8,1,0,0.00
2013-1-9,64.3,59.4,54.7,60.0,56.4,49.0,96,89,81,30.53,30.44,6,1,0,0.03
2013-1-10,65.1,63.5,61.9,64.0,62.6,60.0,99,96,94,30.50,30.29,8,1,0,0.00
2013-1-11,75.6,67.1,62.6,68.0,64.1,62.0,97,90,72,30.35,30.24,7,1,0,0.00
2013-1-12,76.3,66.5,59.6,65.0,62.1,59.0,99,86,61,30.31,30.18,7,0,0,0.00
2013-1-13,73.8,67.2,61.8,66.0,63.9,61.0,99,89,75,30.23,30.14,5,0,0,0.07
2013-1-14,72.4,66.1,57.9,68.0,64.9,57.0,99,95,85,30.25,30.17,5,0,0,0.18
2013-1-15,76.0,65.2,57.6,69.0,64.1,57.0,100,96,77,30.23,30.08,5,0,0,0.18
2013-1-16,66.9,61.7,55.3,66.0,61.2,55.0,99,98,93,30.16,30.06,3,0,0,1.76
2013-1-17,56.3,42.6,36.6,56.0,41.3,35.0,99,95,85,30.45,30.02,9,2,0,0.07
2013-1-18,58.9,42.8,31.7,38.0,32.2,28.0,94,71,31,30.69,30.45,3,0,0,0.00
2013-1-19,61.7,45.0,31.1,40.0,34.6,30.0,94,71,38,30.61,30.40,3,0,0,0.00
2013-1-20,67.3,47.7,33.5,46.0,37.7,33.0,99,73,33,30.42,30.28,6,0,0,0.00
2013-1-21,64.9,48.1,34.5,46.0,37.1,28.0,99,70,43,30.36,30.25,7,0,0,0.00
2013-1-22,54.8,40.8,29.9,29.0,24.9,20.0,86,56,31,30.52,30.36,5,0,0,0.00
2013-1-23,57.7,44.7,30.0,44.0,33.7,25.0,90,67,40,30.59,30.41,4,0,0,0.00
2013-1-24,68.1,53.9,42.8,52.0,43.0,27.0,98,70,43,30.47,30.37,7,0,0,0.00
2013-1-25,66.0,55.5,45.6,55.0,42.4,25.0,82,62,43,30.47,30.27,8,1,0,0.00
2013-1-26,59.9,53.1,40.6,55.0,45.7,37.0,96,78,44,30.44,30.29,5,0,0,0.01
2013-1-27,67.6,54.9,41.6,43.0,38.2,34.0,88,55,35,30.55,30.43,5,1,0,0.00
2013-1-28,72.0,58.0,50.7,59.0,51.5,39.0,93,80,62,30.53,30.38,4,0,0,0.00
2013-1-29,75.7,65.7,54.0,65.0,60.7,53.0,98,84,67,30.37,30.07,7,1,0,0.00
2013-1-30,74.6,61.2,42.9,69.0,58.4,34.0,98,90,69,30.11,29.72,17,3,0,1.70
2013-1-31,55.3,42.6,33.1,35.0,31.2,27.0,90,67,34,30.41,30.12,6,1,0,0.00
2013-2-1,52.4,41.1,32.4,36.0,22.9,13.0,89,53,21,30.57,30.39,7,0,0,0.00
2013-2-2,63.9,45.0,25.9,47.0,28.5,18.0,94,57,25,30.54,30.30,5,0,0,0.00
2013-2-3,63.8,47.5,32.9,44.0,35.6,32.0,98,69,31,30.35,30.21,8,1,0,0.00
2013-2-4,54.4,43.8,33.3,38.0,33.5,28.0,91,70,38,30.31,30.17,4,0,0,0.00
2013-2-5,69.7,54.1,40.6,53.0,47.0,38.0,98,79,53,30.22,30.12,4,0,0,0.00
2013-2-6,74.7,54.6,43.2,56.0,45.4,40.0,99,76,31,30.32,30.20,3,0,0,0.00
2013-2-7,55.0,51.7,48.8,55.0,50.1,45.0,100,94,80,30.26,29.93,6,1,0,1.18
2013-2-8,56.0,50.3,40.2,54.0,48.4,37.0,98,93,86,30.35,30.09,1,0,0,0.00
2013-2-9,66.5,48.2,33.8,41.0,37.1,32.0,93,70,32,30.46,30.34,7,0,0,0.00
2013-2-10,65.4,55.5,45.2,60.0,47.9,32.0,98,76,57,30.39,30.15,10,1,0,1.55
2013-2-11,65.1,57.8,53.7,62.0,57.2,53.0,99,98,90,30.30,30.18,3,0,0,1.58
2013-2-12,53.9,49.0,46.0,54.0,47.8,45.0,99,95,75,30.28,29.95,8,1,0,1.45
2013-2-13,53.3,49.1,38.6,53.0,46.9,37.0,100,92,81,30.18,29.89,7,1,0,0.04
2013-2-14,58.8,43.4,33.6,43.0,38.2,33.0,98,84,50,30.30,30.17,4,0,0,0.00
2013-2-15,66.3,48.7,33.7,48.0,38.2,33.0,99,72,36,30.32,30.17,3,0,0,0.00
2013-2-16,49.3,42.5,30.2,39.0,26.7,13.0,82,57,26,30.38,30.15,18,1,0,0.00
2013-2-17,52.7,36.5,22.7,26.0,18.8,4.0,91,56,16,30.53,30.38,8,0,0,0.00
2013-2-18,61.8,45.1,27.1,34.0,28.6,25.0,93,58,31,30.54,30.25,7,1,0,0.00
2013-2-19,65.5,51.3,40.7,53.0,38.7,28.0,98,67,29,30.35,30.16,7,1,0,0.42
2013-2-20,57.6,43.5,28.7,29.0,23.7,16.0,85,49,22,30.39,30.29,6,0,0,0.00
2013-2-21,67.4,54.1,36.9,45.0,27.9,19.0,60,39,21,30.32,30.10,6,1,0,0.00
2013-2-22,61.3,51.4,47.8,53.0,49.5,46.0,98,94,58,30.21,30.08,6,1,0,1.61
2013-2-23,52.3,48.9,46.0,50.0,48.1,46.0,99,96,91,30.10,30.02,3,0,0,1.24
2013-2-24,72.4,54.9,37.5,50.0,42.7,36.0,100,69,32,30.20,30.06,5,0,0,0.00
2013-2-25,54.4,50.9,47.3,53.0,46.0,34.0,98,85,48,30.11,29.79,7,1,0,1.05
2013-2-26,63.3,51.2,42.4,54.0,44.6,37.0,99,80,52,30.02,29.68,6,1,0,0.85
2013-2-27,62.6,49.6,38.2,44.0,38.1,34.0,88,66,42,30.11,30.02,7,1,0,0.00
2013-2-28,55.5,45.3,36.8,38.0,34.1,30.0,90,66,45,30.20,30.07,6,1,0,0.00
2013-3-1,53.1,42.5,36.3,33.0,30.2,29.0,77,63,44,30.23,30.14,5,1,0,0.00
2013-3-2,41.8,37.9,35.5,35.0,30.8,28.0,84,76,66,30.27,30.17,6,1,0,0.00
2013-3-3,49.3,37.6,28.5,30.0,24.5,19.0,83,62,33,30.32,30.23,13,1,0,0.00
2013-3-4,63.5,47.1,27.3,44.0,30.6,23.0,94,58,30,30.38,30.20,5,0,0,0.00
2013-3-5,70.7,54.4,37.3,58.0,47.9,34.0,96,79,62,30.23,29.90,13,2,0,0.30
2013-3-6,50.9,40.7,33.2,35.0,29.9,25.0,90,67,49,30.40,30.17,9,1,0,0.00
2013-3-7,65.1,45.7,29.6,37.0,31.2,27.0,90,62,27,30.47,30.36,5,0,0,0.00
2013-3-8,70.9,50.4,34.4,39.0,33.7,27.0,87,59,20,30.49,30.36,6,0,0,0.00
2013-3-9,70.7,57.5,40.7,38.0,33.4,26.0,77,42,25,30.44,30.26,7,1,0,0.00
2013-3-10,75.3,63.0,51.4,52.0,45.1,35.0,67,53,40,30.30,30.17,9,1,0,0.00
2013-3-11,66.0,57.7,46.9,60.0,53.4,46.0,98,86,68,30.17,29.95,14,1,0,1.20
2013-3-12,64.8,49.4,36.3,45.0,37.2,34.0,95,67,33,30.30,30.05,7,1,0,0.00
2013-3-13,61.6,48.0,33.4,40.0,31.2,23.0,96,59,25,30.46,30.30,9,1,0,0.00
2013-3-14,63.0,45.8,31.6,32.0,24.2,19.0,72,47,19,30.58,30.41,7,0,0,0.00
2013-3-15,75.5,54.0,33.6,47.0,38.5,31.0,93,61,32,30.44,30.21,6,0,0,0.00
2013-3-16,77.1,62.2,46.4,52.0,45.0,40.0,84,56,30,30.23,30.08,10,1,0,0.00
2013-3-17,70.0,59.3,46.2,60.0,53.3,45.0,99,82,59,30.19,30.08,7,0,0,0.00
2013-3-18,78.5,63.3,55.4,68.0,59.0,55.0,97,87,59,30.12,29.88,6,1,0,0.52
2013-3-19,73.0,59.9,50.7,55.0,42.3,26.0,98,59,21,30.21,30.02,7,1,0,0.00
2013-3-20,63.3,52.9,45.2,34.0,27.6,21.0,63,39,24,30.30,30.10,7,1,0,0.00
2013-3-21,58.2,46.6,33.6,31.0,25.4,16.0,87,48,21,30.19,30.08,6,1,0,0.00
2013-3-22,48.3,45.9,41.8,46.0,38.1,20.0,95,76,35,30.23,30.13,5,0,0,0.13
2013-3-23,61.8,55.2,48.1,54.0,49.6,44.0,97,82,72,30.15,29.76,7,1,0,0.55
2013-3-24,68.7,56.7,44.5,60.0,52.3,33.0,98,86,64,29.96,29.68,11,1,0,0.62
2013-3-25,54.0,44.5,36.4,33.0,28.0,23.0,72,54,32,30.31,29.96,11,2,0,0.00
2013-3-26,48.2,38.5,31.3,30.0,26.7,24.0,81,64,43,30.50,30.30,7,1,0,0.00
2013-3-27,61.2,43.3,26.5,33.0,27.4,24.0,92,58,27,30.57,30.43,4,0,0,0.00
2013-3-28,69.2,49.4,32.2,37.0,32.9,29.0,95,59,23,30.54,30.39,5,0,0,0.00
2013-3-29,74.0,56.7,36.8,44.0,37.8,35.0,95,55,26,30.50,30.32,8,1,0,0.00
2013-3-30,74.2,63.5,49.6,57.0,50.1,39.0,84,63,44,30.35,30.16,6,1,0,0.00
2013-3-31,78.1,66.0,59.1,62.0,58.0,54.0,97,77,44,30.18,29.99,8,1,0,0.62
2013-4-1,77.5,65.0,52.8,62.0,54.2,42.0,99,73,33,30.18,30.02,8,0,0,0.12
2013-4-2,64.4,53.4,48.6,48.0,45.7,44.0,91,76,53,30.31,30.18,6,1,0,0.00
2013-4-3,63.2,58.4,52.3,49.0,44.6,36.0,87,62,45,30.27,30.14,11,2,0,0.00
2013-4-4,51.9,48.9,45.0,49.0,47.5,44.0,96,95,88,30.21,30.08,6,1,0,0.28
2013-4-5,69.0,52.8,43.6,52.0,44.6,41.0,96,77,39,30.26,30.09,8,1,0,0.00
2013-4-6,75.7,59.6,39.6,49.0,43.8,39.0,98,61,30,30.34,30.24,7,1,0,0.00
2013-4-7,77.5,63.0,43.9,56.0,51.8,43.0,98,70,43,30.34,30.19,8,1,0,0.00
2013-4-8,81.9,66.3,50.0,60.0,55.6,49.0,100,72,38,30.29,30.17,10,1,0,0.00
2013-4-9,85.2,68.3,53.6,62.0,57.7,53.0,99,72,40,30.30,30.19,5,0,0,0.00
2013-4-10,83.5,70.2,55.4,65.0,59.8,54.0,98,72,46,30.24,30.05,4,1,0,0.00
2013-4-11,80.9,69.0,56.8,70.0,64.2,56.0,98,85,66,30.07,29.78,7,1,0,1.60
2013-4-12,71.3,63.2,51.4,66.0,53.0,44.0,98,73,40,30.10,29.85,6,1,0,0.04
2013-4-13,80.7,62.4,44.0,55.0,47.1,41.0,98,63,27,30.21,30.10,4,0,0,0.00
2013-4-14,58.9,55.9,51.5,57.0,53.6,48.0,97,92,70,30.21,29.96,4,0,0,1.09
2013-4-15,75.7,65.9,58.1,65.0,61.6,57.0,98,87,68,30.25,30.05,4,0,0,0.00
2013-4-16,85.9,72.4,62.8,70.0,65.5,61.0,96,80,56,30.33,30.25,5,0,0,0.00
2013-4-17,85.2,73.0,65.0,69.0,65.8,63.0,96,79,56,30.34,30.19,4,0,0,0.00
2013-4-18,81.6,71.7,60.1,67.0,63.8,59.0,97,78,56,30.20,30.02,12,1,0,0.00
2013-4-19,72.0,58.1,45.8,70.0,56.3,45.0,97,93,86,30.26,29.95,6,1,0,0.39
2013-4-20,67.9,51.5,36.2,46.0,40.4,36.0,99,71,35,30.41,30.26,7,1,0,0.01
2013-4-21,72.5,58.0,40.5,50.0,43.4,39.0,96,63,35,30.44,30.33,7,1,0,0.00
2013-4-22,73.7,62.8,51.3,54.0,50.0,43.0,81,64,48,30.38,30.25,8,1,0,0.00
2013-4-23,77.6,63.9,53.2,56.0,50.8,44.0,93,64,43,30.34,30.21,5,1,0,0.00
2013-4-24,75.9,64.6,52.8,66.0,60.1,52.0,100,86,63,30.29,30.22,9,0,0,0.00
2013-4-25,75.8,62.3,50.9,60.0,46.4,32.0,94,62,21,30.45,30.27,8,1,0,0.02
2013-4-26,81.1,63.2,48.9,50.0,42.0,36.0,83,50,21,30.49,30.37,5,0,0,0.00
2013-4-27,81.2,67.9,52.9,66.0,59.0,49.0,90,74,54,30.41,30.21,7,1,0,0.00
2013-4-28,77.2,69.9,64.1,67.0,64.8,62.0,96,84,66,30.25,30.09,6,1,0,0.00
2013-4-29,79.3,67.7,58.4,67.0,60.8,54.0,97,80,43,30.16,30.05,5,0,0,0.01
2013-4-30,81.5,67.3,53.6,68.0,60.8,53.0,100,82,53,30.18,30.08,4,0,0,0.01
2013-5-1,69.9,66.5,63.0,64.0,61.2,58.0,94,83,77,30.25,30.14,7,1,0,0.00
2013-5-2,71.2,65.6,62.5,65.0,61.1,58.0,92,85,77,30.24,30.16,7,1,0,0.00
2013-5-3,70.8,65.7,61.4,63.0,60.1,58.0,96,82,71,30.16,30.02,7,1,0,0.06
2013-5-4,61.3,55.0,48.2,61.0,54.2,47.0,98,97,95,30.04,29.96,5,0,0,1.20
2013-5-5,68.8,53.5,41.1,56.0,46.8,41.0,99,80,54,30.06,29.93,8,1,0,0.01
2013-5-6,62.9,54.7,44.6,55.0,50.2,44.0,98,85,67,30.09,30.02,9,1,0,0.37
2013-5-7,69.3,58.1,48.4,57.0,52.1,48.0,99,82,54,30.18,30.04,7,0,0,0.00
2013-5-8,78.8,63.2,46.9,64.0,55.1,46.0,99,78,50,30.25,30.15,8,0,0,0.00
2013-5-9,83.8,68.3,53.3,64.0,58.9,53.0,99,76,45,30.28,30.19,5,0,0,0.00
2013-5-10,76.3,66.7,57.3,67.0,62.0,57.0,99,86,64,30.26,30.09,4,0,0,0.01
2013-5-11,76.2,69.7,63.2,69.0,65.7,62.0,98,87,73,30.14,30.06,5,0,0,0.01
2013-5-12,75.7,65.1,53.4,64.0,52.9,43.0,95,68,37,30.25,30.10,8,1,0,0.00
2013-5-13,74.4,59.2,42.8,48.0,43.0,37.0,95,60,29,30.41,30.26,8,0,0,0.00
2013-5-14,81.2,64.4,47.5,59.0,53.2,46.0,96,71,40,30.42,30.29,5,0,0,0.00
2013-5-15,86.6,68.9,54.7,67.0,59.2,54.0,98,75,36,30.35,30.18,3,0,0,0.00
2013-5-16,83.5,70.9,62.2,64.0,60.6,54.0,95,73,40,30.24,30.12,5,0,0,0.00
2013-5-17,83.2,73.1,62.8,69.0,64.3,61.0,97,76,52,30.24,30.13,4,0,0,0.00
2013-5-18,76.9,70.4,64.1,73.0,67.7,63.0,98,91,75,30.26,30.14,6,0,0,1.05
2013-5-19,85.4,74.2,67.8,74.0,69.5,65.0,98,86,63,30.22,30.10,5,0,0,0.13
2013-5-20,88.3,75.9,65.3,73.0,69.6,65.0,98,82,57,30.22,30.12,3,0,0,0.00
2013-5-21,89.4,77.0,65.4,73.0,69.3,65.0,99,79,52,30.17,30.01,4,0,0,0.00
2013-5-22,86.5,76.6,67.6,72.0,68.6,66.0,96,78,55,30.12,30.00,5,0,0,0.00
2013-5-23,87.0,76.4,65.1,69.0,65.0,62.0,97,70,47,30.15,30.06,5,0,0,0.00
2013-5-24,82.6,71.5,55.9,62.0,55.2,43.0,84,59,35,30.34,30.13,7,1,0,0.00
2013-5-25,83.5,68.1,52.7,60.0,52.0,46.0,90,59,33,30.44,30.32,5,0,0,0.00
2013-5-26,87.9,71.0,54.7,64.0,57.8,53.0,97,68,31,30.39,30.28,3,0,0,0.00
2013-5-27,87.4,73.1,59.1,68.0,62.8,58.0,97,73,43,30.36,30.22,4,0,0,0.00
2013-5-28,88.3,74.5,62.6,68.0,62.4,59.0,94,68,41,30.30,30.20,3,0,0,0.00
2013-5-29,88.6,76.4,64.7,72.0,66.4,60.0,91,72,54,30.29,30.19,10,0,0,0.00
2013-5-30,88.0,77.9,70.5,72.0,68.6,64.0,90,74,53,30.31,30.18,7,0,0,0.00
2013-5-31,89.5,77.6,68.6,70.0,67.7,66.0,94,73,48,30.29,30.16,6,1,0,0.00
2013-6-1,87.2,78.4,70.2,75.0,70.5,67.0,90,77,63,30.20,30.08,7,0,0,0.00
2013-6-2,88.8,77.0,70.3,75.0,71.7,69.0,97,84,58,30.11,29.98,5,0,0,0.06
2013-6-3,86.2,76.3,68.7,78.0,72.3,68.0,99,88,62,30.08,30.00,3,0,0,0.08
2013-6-4,91.8,79.0,68.1,76.0,72.3,67.0,99,81,55,30.11,30.04,3,0,0,0.00
2013-6-5,89.2,77.4,68.3,74.0,71.0,67.0,97,82,60,30.13,29.98,5,0,0,0.67
2013-6-6,80.9,73.5,68.3,74.0,70.7,68.0,99,92,74,30.04,29.86,4,0,0,0.24
2013-6-7,81.3,72.0,66.7,75.0,70.0,66.0,99,94,77,30.03,29.83,4,0,0,0.17
2013-6-8,85.7,74.9,63.8,74.0,69.1,63.0,99,83,61,30.20,30.03,3,0,0,0.01
2013-6-9,80.3,73.0,68.3,76.0,70.6,67.0,98,92,77,30.21,30.11,6,0,0,0.05
2013-6-10,79.5,73.2,69.3,75.0,71.4,69.0,98,94,85,30.21,30.11,5,0,0,1.26
2013-6-11,91.4,79.3,70.8,79.0,73.9,70.0,99,85,57,30.23,30.12,6,0,0,0.01
2013-6-12,93.2,81.5,70.7,79.0,74.5,70.0,99,81,55,30.21,30.11,6,0,0,0.00
2013-6-13,93.2,81.9,70.8,76.0,72.9,69.0,99,77,47,30.11,29.93,8,1,0,0.22
2013-6-14,89.5,78.7,71.4,73.0,67.8,59.0,98,72,41,30.11,29.96,9,1,0,0.01
2013-6-15,89.7,77.5,66.8,70.0,66.2,63.0,90,70,47,30.22,30.11,4,0,0,0.00
2013-6-16,89.9,79.2,69.9,77.0,71.0,64.0,90,77,57,30.26,30.12,4,0,0,0.00
2013-6-17,89.2,77.9,70.9,80.0,73.8,70.0,97,88,64,30.16,30.06,13,0,0,0.04
2013-6-18,85.6,75.2,69.7,80.0,73.1,69.0,98,93,75,30.10,30.02,5,0,0,0.19
2013-6-19,83.4,75.8,70.4,78.0,72.7,69.0,97,90,67,30.18,30.06,4,0,0,0.00
2013-6-20,88.2,76.5,68.8,73.0,70.1,67.0,99,83,50,30.27,30.17,4,0,0,0.01
2013-6-21,88.4,80.8,69.8,71.0,68.1,65.0,88,67,50,30.32,30.23,7,1,0,0.00
2013-6-22,89.2,77.4,67.3,72.0,67.1,65.0,92,73,47,30.31,30.18,4,0,0,0.00
2013-6-23,87.5,75.9,70.5,75.0,71.8,68.0,97,88,63,30.30,30.21,5,0,0,0.00
2013-6-24,89.5,77.8,69.8,77.0,72.3,69.0,99,84,62,30.34,30.23,4,0,0,0.01
2013-6-25,90.8,79.3,68.9,77.0,72.4,68.0,98,81,55,30.29,30.15,5,0,0,0.00
2013-6-26,91.0,80.8,70.7,77.0,74.0,70.0,98,81,55,30.22,30.08,5,0,0,0.00
2013-6-27,90.9,79.4,71.6,80.0,75.2,70.0,97,87,66,30.12,29.97,4,0,0,0.47
2013-6-28,92.3,75.8,69.9,83.0,73.6,69.0,99,93,70,30.02,29.86,4,0,0,0.99
2013-6-29,86.3,74.5,70.0,77.0,72.1,69.0,99,92,70,29.90,29.82,5,0,0,0.01
2013-6-30,87.8,76.7,68.3,76.0,71.5,68.0,99,85,52,29.93,29.84,4,0,0,0.00
2013-7-1,81.8,74.5,70.1,76.0,71.9,69.0,99,92,75,30.05,29.90,3,0,0,0.10
2013-7-2,87.6,76.5,70.7,77.0,72.9,70.0,98,89,58,30.18,30.03,6,0,0,0.62
2013-7-3,74.4,72.9,71.0,74.0,72.3,70.0,99,98,96,30.25,30.15,5,0,0,0.99
2013-7-4,72.7,71.1,70.0,72.0,70.7,70.0,99,98,97,30.25,30.11,9,1,0,0.84
2013-7-5,77.3,72.8,69.5,75.0,71.6,69.0,99,96,88,30.30,30.21,8,0,0,0.28
2013-7-6,79.7,73.2,71.2,77.0,72.5,70.0,100,98,90,30.26,30.18,2,0,0,1.74
2013-7-7,80.9,74.5,71.1,77.0,73.3,71.0,100,96,84,30.30,30.22,1,0,0,0.04
2013-7-8,88.4,76.2,70.7,77.0,72.9,70.0,100,90,62,30.34,30.24,2,0,0,0.02
2013-7-9,90.0,78.5,69.4,81.0,74.3,69.0,99,87,68,30.32,30.20,6,0,0,0.00
2013-7-10,91.3,75.8,70.4,81.0,73.5,70.0,99,93,64,30.23,30.09,9,0,0,1.74
2013-7-11,83.0,75.9,71.2,77.0,74.0,71.0,100,94,78,30.12,30.01,5,0,0,0.00
2013-7-12,88.2,77.6,73.2,79.0,74.6,72.0,99,91,68,30.05,29.98,1,0,0,0.00
2013-7-13,83.1,74.5,69.4,76.0,71.7,69.0,98,91,73,30.16,30.02,6,0,0,0.17
2013-7-14,87.2,78.0,71.9,77.0,73.6,71.0,98,87,68,30.25,30.12,8,1,0,0.07
2013-7-15,88.6,77.6,73.5,77.0,73.3,71.0,96,87,65,30.36,30.25,4,0,0,0.23
2013-7-16,89.3,79.5,72.9,77.0,73.6,72.0,97,83,57,30.40,30.32,5,0,0,0.00
2013-7-17,92.6,81.4,71.0,78.0,73.6,69.0,99,79,53,30.40,30.24,4,0,0,0.00
2013-7-18,90.4,79.3,69.3,76.0,72.7,68.0,96,81,59,30.32,30.17,4,0,0,0.00
2013-7-19,92.9,80.7,71.0,77.0,72.7,69.0,99,79,46,30.24,30.09,3,0,0,0.00
2013-7-20,87.3,77.7,71.9,77.0,73.7,71.0,98,88,63,30.18,30.08,7,0,0,0.00
2013-7-21,87.7,76.5,72.4,81.0,74.5,72.0,99,94,71,30.18,30.10,7,0,0,0.28
2013-7-22,84.5,74.8,71.1,79.0,73.2,71.0,99,95,76,30.18,30.07,6,1,0,0.61
2013-7-23,87.6,75.3,69.6,79.0,72.6,69.0,99,92,67,30.16,30.00,3,0,0,0.56
2013-7-24,84.7,74.5,69.4,79.0,72.3,69.0,100,93,76,30.05,29.96,5,0,0,0.27
2013-7-25,89.5,78.6,70.5,78.0,73.0,70.0,99,84,60,30.12,29.98,3,0,0,0.00
2013-7-26,89.0,77.3,67.0,75.0,70.9,66.0,99,82,55,30.17,30.10,5,0,0,0.00
2013-7-27,81.9,75.0,69.0,76.0,71.7,69.0,99,90,70,30.12,30.05,1,0,0,0.00
2013-7-28,89.5,76.5,66.3,78.0,71.7,66.0,99,86,61,30.16,30.07,3,0,0,0.01
2013-7-29,91.0,78.3,70.6,80.0,72.6,69.0,99,84,56,30.27,30.15,2,0,0,0.00
2013-7-30,91.4,78.4,66.0,80.0,71.9,65.0,97,82,57,30.32,30.21,3,0,0,0.00
2013-7-31,78.9,75.6,73.4,77.0,73.8,72.0,98,94,87,30.23,30.12,5,0,0,0.50
2013-8-1,89.7,79.0,72.7,80.0,74.5,72.0,99,87,64,30.14,30.04,4,0,0,0.13
2013-8-2,90.4,78.9,69.8,78.0,73.3,69.0,99,84,55,30.15,30.06,1,0,0,0.01
2013-8-3,88.9,79.1,69.2,78.0,73.6,69.0,99,85,61,30.20,30.12,3,0,0,0.00
2013-8-4,90.5,80.3,73.9,80.0,75.4,73.0,98,86,64,30.18,30.09,7,0,0,0.00
2013-8-5,89.0,79.2,70.9,77.0,72.5,70.0,98,81,56,30.17,30.09,4,0,0,0.00
2013-8-6,92.6,78.5,69.5,79.0,74.5,69.0,98,88,59,30.14,30.07,2,0,0,0.03
2013-8-7,90.0,78.6,72.9,81.0,76.3,73.0,99,93,71,30.17,30.07,2,0,0,1.64
2013-8-8,88.9,78.1,73.5,79.0,75.7,73.0,100,93,71,30.17,30.09,3,0,0,0.04
2013-8-9,90.8,80.3,71.6,81.0,76.1,71.0,99,88,62,30.21,30.11,2,0,0,0.01
2013-8-10,92.1,79.1,72.9,81.0,75.5,72.0,99,90,62,30.26,30.18,6,0,0,0.22
2013-8-11,90.8,79.4,70.7,78.0,74.7,70.0,100,87,60,30.30,30.20,3,0,0,0.01
2013-8-12,90.9,80.3,72.5,80.0,75.7,72.0,99,87,64,30.25,30.12,2,0,0,0.20
2013-8-13,90.0,77.5,72.8,81.0,74.7,72.0,99,91,68,30.15,30.04,4,0,0,0.00
2013-8-14,79.8,73.9,70.4,76.0,72.8,70.0,99,96,85,30.11,30.05,4,0,0,0.80
2013-8-15,73.1,70.6,67.0,73.0,69.7,66.0,100,97,90,30.17,30.07,5,0,0,4.70
2013-8-16,72.7,68.3,64.9,69.0,66.7,64.0,99,94,88,30.21,30.12,4,0,0,0.03
2013-8-17,69.8,67.6,65.2,69.0,67.0,65.0,99,98,95,30.23,30.16,4,0,0,0.19
2013-8-18,77.5,72.3,68.5,76.0,71.7,68.0,100,98,91,30.28,30.17,4,0,0,0.08
2013-8-19,86.3,76.5,70.9,78.0,73.8,71.0,100,91,69,30.24,30.13,2,0,0,0.00
2013-8-20,88.4,77.8,72.0,79.0,74.4,71.0,99,90,68,30.27,30.17,5,0,0,0.01
2013-8-21,89.2,76.6,69.7,78.0,72.7,69.0,99,88,65,30.33,30.22,3,0,0,0.01
2013-8-22,91.0,77.7,67.0,78.0,72.1,67.0,99,84,57,30.30,30.16,2,0,0,0.00
2013-8-23,90.5,77.7,69.2,79.0,72.7,69.0,99,86,61,30.21,30.10,5,0,0,0.00
2013-8-24,88.7,77.9,68.8,78.0,72.9,68.0,99,85,65,30.34,30.16,3,0,0,0.01
2013-8-25,86.2,76.4,68.9,71.0,68.3,64.0,93,77,52,30.43,30.33,6,0,0,0.00
2013-8-26,84.6,72.4,61.6,66.0,62.7,60.0,97,74,45,30.41,30.28,8,0,0,0.00
2013-8-27,86.4,72.8,61.4,72.0,66.1,61.0,99,82,53,30.30,30.18,3,0,0,0.00
2013-8-28,89.4,76.1,64.3,75.0,69.8,64.0,100,83,57,30.21,30.13,3,0,0,0.01
2013-8-29,91.6,79.4,68.5,78.0,72.9,68.0,99,82,57,30.18,30.07,6,0,0,0.00
2013-8-30,94.7,81.3,71.3,81.0,75.9,71.0,99,85,59,30.12,30.01,3,0,0,0.00
2013-8-31,92.4,80.9,72.8,80.0,76.0,72.0,99,86,58,30.09,29.99,4,0,0,0.00
2013-9-1,93.1,80.6,72.0,79.0,74.9,72.0,99,84,58,30.07,29.97,6,0,0,0.00
2013-9-2,91.6,79.3,72.2,78.0,73.9,71.0,97,85,55,30.12,30.00,2,0,0,0.00
2013-9-3,91.8,80.9,73.0,78.0,74.5,72.0,99,82,55,30.12,30.01,2,0,0,0.00
2013-9-4,91.3,79.2,70.3,78.0,73.3,70.0,99,84,60,30.21,30.09,1,0,0,0.01
2013-9-5,91.2,77.6,67.5,73.0,68.9,66.0,99,78,44,30.25,30.17,4,0,0,0.01
2013-9-6,91.9,77.3,65.9,77.0,71.3,65.0,99,84,53,30.24,30.14,4,0,0,0.00
2013-9-7,92.0,78.8,69.9,74.0,69.6,65.0,96,76,42,30.22,30.11,2,0,0,0.00
2013-9-8,92.1,77.0,65.5,76.0,70.0,65.0,100,81,50,30.15,30.07,3,0,0,0.00
2013-9-9,93.6,78.9,68.3,77.0,72.7,68.0,99,83,52,30.20,30.11,2,0,0,0.00
2013-9-10,91.0,79.0,71.0,74.0,70.9,69.0,96,78,50,30.31,30.21,6,0,0,0.00
2013-9-11,92.6,77.9,67.2,74.0,68.6,64.0,99,76,40,30.33,30.20,4,0,0,0.00
2013-9-12,93.2,77.2,65.1,74.0,69.2,65.0,99,79,44,30.22,30.05,2,0,0,0.00
2013-9-13,89.4,76.7,69.0,77.0,70.7,62.0,98,83,57,30.06,29.94,5,0,0,0.06
2013-9-14,87.0,71.5,59.8,63.0,58.9,55.0,95,67,35,30.17,30.02,5,0,0,0.00
2013-9-15,90.5,74.2,60.2,74.0,68.5,59.0,98,84,52,30.26,30.17,2,0,0,0.00
2013-9-16,93.4,79.8,69.3,77.0,71.1,66.0,99,78,45,30.25,30.14,4,0,0,0.00
2013-9-17,86.0,78.9,70.7,74.0,71.1,66.0,84,77,67,30.27,30.20,5,1,0,0.00
2013-9-18,86.5,74.6,66.8,69.0,66.2,63.0,89,76,56,30.32,30.22,7,0,0,0.00
2013-9-19,88.4,73.9,64.1,67.0,64.2,62.0,94,74,44,30.30,30.18,5,0,0,0.00
2013-9-20,89.3,74.8,62.3,72.0,66.8,62.0,99,79,49,30.20,30.02,4,0,0,0.00
2013-9-21,75.2,71.6,67.3,74.0,70.5,67.0,99,96,88,30.04,29.87,5,0,0,0.96
2013-9-22,83.6,71.2,61.7,71.0,65.7,60.0,98,84,57,29.99,29.89,4,0,0,0.00
2013-9-23,80.1,69.3,60.7,71.0,66.3,60.0,99,91,67,30.12,29.99,5,0,0,0.07
2013-9-24,73.0,69.3,67.4,70.0,67.9,67.0,98,95,89,30.11,29.94,4,0,0,0.22
2013-9-25,79.8,71.3,67.2,75.0,69.7,66.0,99,95,81,29.99,29.90,6,0,0,0.03
2013-9-26,81.2,70.5,63.1,69.0,65.9,62.0,98,86,63,30.14,29.98,2,0,0,0.00
2013-9-27,82.3,68.9,60.1,64.0,60.6,57.0,99,78,44,30.25,30.13,5,0,0,0.00
2013-9-28,80.6,68.5,57.9,62.0,58.1,56.0,93,72,45,30.32,30.21,8,1,0,0.00
2013-9-29,79.8,66.9,55.4,65.0,59.4,54.0,96,79,50,30.26,30.14,4,0,0,0.00
2013-9-30,80.9,68.1,61.6,69.0,63.1,58.0,96,84,61,30.20,30.11,4,0,0,0.00
2013-10-1,86.3,72.2,64.4,68.0,64.6,62.0,95,79,47,30.27,30.16,3,0,0,0.00
2013-10-2,84.4,70.6,60.0,69.0,63.6,59.0,99,81,47,30.28,30.18,3,0,0,0.00
2013-10-3,83.6,70.0,61.5,69.0,64.7,61.0,99,85,54,30.27,30.18,1,0,0,0.00
2013-10-4,89.3,73.2,61.3,73.0,66.9,61.0,99,83,50,30.28,30.18,3,0,0,0.00
2013-10-5,85.3,71.6,63.4,72.0,66.5,63.0,99,86,58,30.24,30.14,4,0,0,0.00
2013-10-6,84.1,72.0,64.0,74.0,69.2,63.0,98,91,68,30.13,29.98,6,0,0,0.18
2013-10-7,77.1,67.1,57.1,70.0,61.1,55.0,99,83,53,30.10,29.96,6,0,0,0.04
2013-10-8,80.3,65.7,55.7,67.0,59.6,53.0,92,81,62,30.23,30.07,7,1,0,0.00
2013-10-9,80.0,67.1,59.6,65.0,60.7,55.0,96,81,59,30.31,30.21,6,0,0,0.00
2013-10-10,83.4,67.1,55.7,65.0,59.9,55.0,99,81,51,30.28,30.15,1,0,0,0.00
2013-10-11,82.8,67.8,57.1,68.0,60.3,57.0,100,80,47,30.21,30.12,3,0,0,0.00
2013-10-12,84.2,67.6,56.0,66.0,59.0,56.0,100,78,45,30.23,30.15,5,0,0,0.00
2013-10-13,85.5,69.5,57.3,64.0,60.1,56.0,98,76,42,30.32,30.22,5,0,0,0.01
2013-10-14,79.1,68.4,60.0,66.0,62.8,59.0,98,83,59,30.32,30.22,5,0,0,0.00
2013-10-15,77.3,67.6,60.2,66.0,62.7,59.0,98,85,64,30.25,30.15,4,0,0,0.00
2013-10-16,82.2,67.9,57.6,66.0,61.7,57.0,99,82,52,30.20,30.08,3,0,0,0.01
2013-10-17,76.3,69.2,64.6,72.0,67.5,62.0,97,94,82,30.11,30.03,1,0,0,0.17
2013-10-18,74.8,66.5,61.3,64.0,60.3,57.0,96,82,57,30.17,30.07,4,0,0,0.00
2013-10-19,63.1,60.0,53.9,61.0,58.4,53.0,98,94,88,30.15,30.08,2,0,0,0.13
2013-10-20,72.5,58.5,49.0,56.0,52.4,48.0,99,83,50,30.22,30.14,4,0,0,0.01
2013-10-21,73.6,59.5,47.1,63.0,54.5,46.0,99,85,58,30.25,30.16,1,0,0,0.01
2013-10-22,76.9,66.4,57.9,66.0,59.2,54.0,96,79,51,30.14,30.00,4,0,0,0.00
2013-10-23,68.5,56.4,43.6,54.0,46.4,40.0,98,73,37,30.27,30.04,7,1,0,0.00
2013-10-24,72.8,53.6,39.3,50.0,44.1,39.0,97,75,35,30.37,30.26,5,0,0,0.00
2013-10-25,61.2,49.5,38.8,47.0,36.3,27.0,95,65,28,30.55,30.36,5,0,0,0.00
2013-10-26,67.1,48.9,34.2,43.0,37.7,33.0,96,70,32,30.49,30.34,5,0,0,0.00
2013-10-27,75.2,56.8,41.3,58.0,49.4,40.0,98,79,47,30.34,30.26,4,0,0,0.00
2013-10-28,78.9,63.5,53.6,62.0,57.3,53.0,99,82,50,30.40,30.28,2,0,0,0.00
2013-10-29,79.4,62.6,52.0,62.0,57.0,51.0,99,84,48,30.45,30.35,3,0,0,0.00
2013-10-30,80.0,64.3,54.9,62.0,57.1,54.0,99,80,45,30.44,30.28,3,0,0,0.00
2013-10-31,75.8,67.3,56.6,68.0,62.8,56.0,97,86,74,30.29,29.98,7,1,0,0.00
2013-11-1,73.8,66.5,54.9,70.0,64.3,53.0,98,93,78,30.00,29.89,4,0,0,0.28
2013-11-2,72.2,57.8,46.9,58.0,48.6,42.0,99,75,41,30.23,30.00,8,0,0,0.01
2013-11-3,68.4,52.2,41.5,47.0,42.4,37.0,97,74,33,30.44,30.23,7,0,0,0.00
2013-11-4,70.9,55.7,42.6,50.0,44.0,38.0,97,67,45,30.52,30.42,7,0,0,0.00
2013-11-5,70.6,58.5,50.4,49.0,42.0,37.0,69,55,39,30.55,30.41,6,1,0,0.00
2013-11-6,76.4,63.3,57.3,63.0,58.0,50.0,98,83,62,30.41,30.23,5,0,0,0.00
2013-11-7,65.8,57.4,42.2,64.0,52.2,38.0,100,84,51,30.39,30.19,4,0,0,0.07
2013-11-8,66.2,49.8,41.0,40.0,35.4,31.0,91,62,29,30.49,30.38,7,1,0,0.00
2013-11-9,69.1,53.6,39.8,48.0,42.6,37.0,90,69,39,30.49,30.36,5,0,0,0.00
2013-11-10,75.1,58.0,47.3,54.0,48.4,41.0,98,75,31,30.45,30.35,2,0,0,0.05
2013-11-11,77.3,57.3,45.3,48.0,43.1,38.0,96,65,27,30.42,30.30,4,0,0,0.00
2013-11-12,71.9,49.9,35.2,50.0,38.4,19.0,99,68,40,30.60,30.30,10,1,0,0.00
2013-11-13,54.3,38.5,28.4,27.0,21.2,17.0,92,54,24,30.73,30.59,5,1,0,0.00
2013-11-14,64.0,43.5,26.4,40.0,31.3,23.0,91,67,31,30.65,30.43,5,0,0,0.00
2013-11-15,65.4,56.4,50.5,58.0,50.4,37.0,97,81,61,30.43,30.25,7,0,0,0.07
2013-11-16,71.6,61.4,54.4,63.0,58.4,54.0,99,90,73,30.33,30.22,3,0,0,0.00
2013-11-17,71.5,67.2,63.5,70.0,65.8,60.0,99,95,88,30.24,30.06,5,0,0,0.02
2013-11-18,81.4,67.5,52.7,70.0,54.1,36.0,99,66,29,30.20,30.06,5,0,0,0.14
2013-11-19,66.3,53.5,44.9,42.0,36.5,32.0,79,54,34,30.28,30.18,9,0,0,0.00
2013-11-20,62.4,53.5,45.2,45.0,39.0,31.0,67,58,51,30.43,30.27,5,0,0,0.00
2013-11-21,63.3,57.3,52.9,57.0,50.9,43.0,89,79,67,30.48,30.39,4,0,0,0.00
2013-11-22,67.3,60.8,55.1,62.0,58.3,52.0,97,92,82,30.45,30.31,3,0,0,0.00
2013-11-23,62.0,57.5,44.3,61.0,52.0,31.0,98,82,57,30.42,30.28,11,0,0,0.00
2013-11-24,53.5,42.1,33.3,30.0,22.5,17.0,65,48,27,30.60,30.42,7,1,0,0.00
2013-11-25,53.0,44.5,34.1,43.0,28.4,15.0,84,54,35,30.58,30.24,6,1,0,0.00
2013-11-26,49.6,46.4,43.3,49.0,45.8,43.0,99,97,88,30.23,29.84,8,1,0,0.76
2013-11-27,45.8,37.6,25.6,45.0,30.9,23.0,97,78,51,30.50,29.91,6,1,0,0.27
2013-11-28,53.8,34.5,23.0,29.0,23.7,19.0,94,69,28,30.66,30.49,3,0,0,0.00
2013-11-29,66.2,42.0,27.3,30.0,26.2,19.0,95,63,17,30.71,30.60,3,0,0,0.00
2013-11-30,63.6,46.5,29.8,41.0,35.3,28.0,94,68,42,30.67,30.47,4,0,0,0.00
2013-12-1,64.3,51.2,45.0,47.0,40.9,35.0,91,69,52,30.46,30.17,4,0,0,0.00
2013-12-2,66.9,53.8,45.4,53.0,48.9,43.0,97,85,58,30.17,29.95,1,0,0,0.04
2013-12-3,63.1,58.6,51.7,63.0,58.0,50.0,100,98,92,30.04,29.95,3,0,0,0.67
2013-12-4,72.4,66.4,61.8,68.0,65.4,62.0,100,96,84,30.17,30.04,4,0,0,0.02
2013-12-5,78.6,71.0,66.8,73.0,68.8,67.0,100,93,76,30.22,30.11,8,0,0,0.24
2013-12-6,79.4,71.5,61.2,71.0,68.4,60.0,97,90,74,30.22,30.12,11,1,0,0.22
2013-12-7,61.3,49.7,46.0,61.0,47.4,43.0,98,91,84,30.43,30.23,4,0,0,0.28
2013-12-8,57.4,53.5,48.9,57.0,53.1,46.0,100,98,88,30.39,30.27,5,0,0,0.09
2013-12-9,64.1,58.5,53.9,64.0,58.1,54.0,100,99,95,30.27,30.16,2,0,0,0.05
2013-12-10,57.4,47.8,35.8,57.0,43.5,32.0,100,86,55,30.51,30.13,6,0,0,0.23
2013-12-11,62.7,44.0,32.4,43.0,34.8,28.0,92,73,38,30.59,30.49,4,0,0,0.00
2013-12-12,54.9,41.2,29.5,35.0,26.6,19.0,87,60,25,30.64,30.53,5,0,0,0.00
2013-12-13,56.1,43.2,26.7,39.0,28.4,20.0,89,59,35,30.54,30.30,2,0,0,0.00
2013-12-14,61.8,55.3,47.0,62.0,53.6,40.0,99,94,73,30.28,29.97,4,0,0,0.56
2013-12-15,54.5,41.6,31.0,54.0,37.5,30.0,99,86,70,30.41,30.02,6,0,0,0.01
2013-12-16,60.2,40.1,27.0,38.0,32.3,26.0,98,78,32,30.48,30.39,5,0,0,0.00
2013-12-17,64.8,44.7,29.2,43.0,34.6,29.0,99,73,34,30.46,30.32,9,0,0,0.00
2013-12-18,62.0,43.8,31.1,39.0,31.9,26.0,94,68,26,30.54,30.40,3,0,0,0.00
2013-12-19,67.7,45.4,29.7,38.0,32.7,29.0,98,68,24,30.50,30.34,3,0,0,0.00
2013-12-20,67.2,52.5,36.1,59.0,48.7,34.0,96,87,71,30.38,30.24,3,0,0,0.01
2013-12-21,73.5,66.9,56.9,69.0,64.7,56.0,99,93,84,30.23,30.05,6,1,0,0.06
2013-12-22,72.1,63.4,55.8,69.0,62.3,56.0,99,96,89,30.23,30.02,8,0,0,3.97
2013-12-23,55.6,49.5,37.1,55.0,47.6,33.0,100,93,82,30.48,30.21,8,0,0,0.14
2013-12-24,49.6,37.5,30.1,33.0,28.2,24.0,95,72,41,30.63,30.48,5,0,0,0.00
2013-12-25,51.4,39.0,26.2,38.0,30.8,23.0,89,73,58,30.60,30.47,4,0,0,0.00
2013-12-26,58.9,44.7,34.7,38.0,35.4,32.0,92,72,41,30.55,30.43,2,0,0,0.00
2013-12-27,58.4,45.6,36.2,40.0,35.5,31.0,85,69,48,30.59,30.48,4,0,0,0.00
2013-12-28,45.8,43.9,41.5,45.0,39.7,34.0,99,86,64,30.51,30.05,7,1,0,1.86
2013-12-29,54.9,46.3,37.6,49.0,44.8,37.0,99,95,79,30.26,30.02,4,0,0,0.03
2013-12-30,52.5,45.0,36.9,48.0,43.6,36.0,100,95,81,30.40,30.23,0,0,0,0.00
2013-12-31,49.7,43.9,37.5,46.0,38.1,34.0,97,81,60,30.58,30.39,5,0,0,0.00
2014-1-1,45.5,42.8,37.5,45.0,39.7,33.0,98,89,76,30.51,30.29,1,0,0,0.24
2014-1-2,54.1,44.7,31.0,53.0,42.2,24.0,99,91,71,30.38,30.00,11,1,0,0.26